Location: Waco, TX
(31.5480°N, 97.1670°W)
Time: 15:58:52
(UTC-05:00)

ISS - Pass Details

Date: 18 September 2019
Orbit: 411 x 421 km, 51.6° (Epoch: 17 September)

Event Time Altitude Azimuth Distance (km) Brightness Sun altitude
Rises 03:50:23 0° 330° (NNW) 2,346 - -41.6°
Reaches altitude 10° 03:52:56 10° 350° (N) 1,483 - -41.2°
Maximum altitude 03:55:18 18° 36° (NE) 1,096 - -40.8°
Drops below altitude 10° 03:57:40 10° 81° (E) 1,483 - -40.3°
Sets 04:00:14 0° 101° (ESE) 2,345 - -39.9°
